TimePST,TemperatureF,Dew PointF,Humidity,Sea Level PressureIn,VisibilityMPH,Wind Direction,Wind SpeedMPH,Gust SpeedMPH,PrecipitationIn,Events,Conditions,WindDirDegrees,DateUTC
12:56 AM,27.0,15.1,61,30.12,10.0,WNW,5.8,-,N/A,,Clear,300,2012-12-29 08:56:00
1:56 AM,25.0,12.9,60,30.13,10.0,West,4.6,-,N/A,,Clear,280,2012-12-29 09:56:00
2:56 AM,23.0,12.0,63,30.12,10.0,WNW,4.6,-,N/A,,Clear,300,2012-12-29 10:56:00
3:56 AM,21.9,12.0,66,30.11,10.0,WNW,4.6,-,N/A,,Clear,290,2012-12-29 11:56:00
4:56 AM,21.9,12.0,66,30.10,10.0,WSW,3.5,-,N/A,,Clear,240,2012-12-29 12:56:00
5:56 AM,21.9,10.9,63,30.11,10.0,West,3.5,-,N/A,,Clear,260,2012-12-29 13:56:00
6:56 AM,24.1,12.9,62,30.12,10.0,Calm,Calm,-,N/A,,Partly Cloudy,0,2012-12-29 14:56:00
7:56 AM,30.0,16.0,56,30.12,10.0,Calm,Calm,-,N/A,,Overcast,0,2012-12-29 15:56:00
8:56 AM,34.0,18.0,52,30.12,10.0,Calm,Calm,-,N/A,,Overcast,0,2012-12-29 16:56:00
9:56 AM,37.0,17.1,44,30.12,10.0,Calm,Calm,-,N/A,,Overcast,0,2012-12-29 17:56:00
10:56 AM,39.0,18.0,43,30.09,10.0,Variable,4.6,-,N/A,,Overcast,0,2012-12-29 18:56:00
11:56 AM,42.1,19.0,40,30.05,10.0,ENE,4.6,-,N/A,,Overcast,70,2012-12-29 19:56:00
12:56 PM,42.1,19.0,40,30.04,10.0,Calm,Calm,-,N/A,,Overcast,0,2012-12-29 20:56:00
1:56 PM,43.0,19.9,40,30.03,10.0,SW,4.6,-,0.00,,Overcast,220,2012-12-29 21:56:00
2:56 PM,43.0,25.0,49,30.03,10.0,South,6.9,-,N/A,,Overcast,190,2012-12-29 22:56:00
3:56 PM,43.0,28.9,58,30.03,10.0,South,4.6,-,N/A,,Overcast,180,2012-12-29 23:56:00
4:56 PM,43.0,28.0,56,30.03,10.0,South,3.5,-,N/A,,Overcast,170,2012-12-30 00:56:00
5:56 PM,42.1,28.0,58,30.04,10.0,Calm,Calm,-,N/A,,Overcast,0,2012-12-30 01:56:00
6:56 PM,37.0,24.1,59,30.06,10.0,West,3.5,-,N/A,,Scattered Clouds,260,2012-12-30 02:56:00
7:56 PM,30.0,19.0,64,30.07,10.0,WNW,4.6,-,N/A,,Clear,290,2012-12-30 03:56:00
8:44 PM,30.2,19.4,64,30.01,10.0,WNW,6.9,-,N/A,,Mostly Cloudy,290,2012-12-30 04:44:00
8:56 PM,30.0,21.0,69,30.07,10.0,West,4.6,-,N/A,,Overcast,270,2012-12-30 04:56:00
9:22 PM,32.0,21.2,64,30.02,10.0,West,5.8,-,N/A,,Overcast,280,2012-12-30 05:22:00
9:56 PM,35.1,24.1,64,30.07,10.0,WNW,4.6,-,N/A,,Overcast,290,2012-12-30 05:56:00
10:56 PM,32.0,23.0,69,30.06,10.0,WSW,3.5,-,N/A,,Scattered Clouds,250,2012-12-30 06:56:00
11:56 PM,30.9,21.9,69,30.05,10.0,Calm,Calm,-,N/A,,Clear,0,2012-12-30 07:56:00